Location: Clinton NY
(43.0598°N, 75.3602°W)
Time: 07:47:11
(UTC-04:00)

Iridium 11 - Visible Passes

Search period start: 01 May 2016 00:00
Search period end: 11 May 2016 00:00
Orbit: 776 x 779 km, 86.4° (Epoch: 30 April)

Date Brightness Start Highest point End Pass type
(mag) Time Alt. Az. Time Alt. Az. Time Alt. Az.
01 May 7.6 01:16:15 10° NNE 01:19:38 17° ENE 01:20:11 17° E visible
01 May 5.6 02:55:39 10° N 03:00:38 59° W 03:00:38 59° W visible
02 May 5.5 02:22:03 10° N 02:27:07 76° ENE 02:27:07 76° ENE visible
02 May 7.5 04:05:01 10° NW 04:07:16 13° WNW 04:07:35 13° W visible
03 May 6.4 01:48:43 10° N 01:53:36 42° E 01:53:36 42° E visible
03 May 6.9 03:30:04 10° NNW 03:34:04 23° W 03:34:04 23° W visible
04 May 7.2 01:15:44 10° NNE 01:19:56 24° ENE 01:20:06 24° E visible
04 May 6.1 02:55:56 10° NNW 03:00:34 41° WNW 03:00:34 41° WNW visible
05 May 7.8 00:43:29 10° NE 00:46:03 14° ENE 00:46:36 13° ENE visible
05 May 5.5 02:22:10 10° N 02:27:04 72° NW 02:27:04 72° NW visible
06 May 5.8 01:48:40 10° N 01:53:35 60° ENE 01:53:35 60° ENE visible
06 May 7.3 03:30:50 10° NW 03:34:00 16° WNW 03:34:02 16° WNW visible
07 May 6.7 01:15:27 10° NNE 01:20:05 34° ENE 01:20:05 34° ENE visible
07 May 6.6 02:56:20 10° NNW 03:00:33 29° WNW 03:00:33 29° WNW visible
08 May 7.4 00:42:40 10° NNE 00:46:23 19° ENE 00:46:37 19° ENE visible
08 May 5.9 02:22:22 10° NNW 02:27:05 51° WNW 02:27:05 51° WNW visible
09 May 8.0 00:11:24 10° ENE 00:12:26 11° ENE 00:13:08 10° ENE visible
09 May 5.5 01:48:43 10° N 01:53:36 78° NNE 01:53:36 78° NNE visible
09 May 7.7 03:32:19 10° WNW 03:33:51 11° WNW 03:34:04 11° WNW visible
10 May 6.2 01:15:20 10° N 01:20:08 47° ENE 01:20:08 47° ENE visible
10 May 7.1 02:56:55 10° NNW 03:00:36 21° WNW 03:00:36 21° WNW visible
